Regional Weather Roundup
Issued by NWS Upton, NY

Home | Current Version | Previous Version | Text Only | Print | Product List | Glossary On
Versions: 1 2 3 4 5 6 7 8 9 10 11 12 13 14 15 16 17 18 19 20 21 22 23 24 25 26 27 28 29 30 31 32 33 34 35 36 37 38 39 40 41 42 43 44 45 46
000
ASUS41 KOKX 062005
RWROKX

REGIONAL WEATHER ROUNDUP
NATIONAL WEATHER SERVICE NEW YORK NY
300 PM EST FRI MAR 06 2015

NOTE: "FAIR" INDICATES FEW OR NO CLOUDS BELOW 12,000 FEET WITH NO
SIGNIFICANT WEATHER AND/OR OBSTRUCTIONS TO VISIBILITY.

NYZ071-072-176-178-NJZ106-104-062100-
NEW YORK CITY METRO AREA


CITY           SKY/WX    TMP DP  RH WIND       PRES   REMARKS
CENTRAL PARK   SUNNY     25   3  38 CALM      30.47F
LAGUARDIA APRT SUNNY     27   5  39 CALM      30.45F
KENNEDY INTL   SUNNY     24   5  44 SW6       30.48F WCI  17
NEWARK/LIBERTY MOSUNNY   26   4  38 SW3       30.46F
BRNX BOT. GARD   N/A    N/A N/A N/A N7        30.46R
TETERBORO      SUNNY     25   2  37 SE5       30.45F WCI  19
$$

NYZ177-179-078>081-062100-
LONG ISLAND NEW YORK

CITY           SKY/WX    TMP DP  RH WIND       PRES   REMARKS
FARMINGDALE    SUNNY     26   2  35 CALM      30.46F
ISLIP          SUNNY     26  -4  27 CALM      30.43F
SHIRLEY        SUNNY     26  -2  29 CALM      30.46F
WESTHAMPTON    SUNNY     24  -6  26 NW8       30.46F WCI  15
MONTAUK POINT    N/A     23   4  44 VRB3      30.46F
$$

NYZ052-065-067-062100-
HUDSON VALLEY

CITY           SKY/WX    TMP DP  RH WIND       PRES   REMARKS
WHITE PLAINS   SUNNY     25  -2  31 NW3       30.41F
NEWBURGH       SUNNY     23   0  36 SW7       30.42F WCI  15
MONTGOMERY     SUNNY     24  -2  32 S9        30.40F WCI  14
POUGHKEEPSIE   SUNNY     26  -1  31 W3        30.43F
ALBANY         MOSUNNY   24  -2  32 E3        30.41F
$$

NJZ001-105-106-008-010-013-015-019>022-104-062100-
NEW JERSEY

CITY           SKY/WX    TMP DP  RH WIND       PRES   REMARKS
NEWARK/LIBERTY MOSUNNY   26   4  38 SW3       30.46F
TETERBORO      SUNNY     25   2  37 SE5       30.45F WCI  19
CALDWELL       SUNNY     25   1  35 CALM      30.45F
MORRISTOWN     SUNNY     27   5  39 CALM      30.46F
SOMERVILLE     SUNNY     27   6  41 NW6       30.44F WCI  20
SUSSEX         SUNNY     25   0  33 SW7       30.41F WCI  17
ANDOVER          N/A     24   1  36 SW8       30.41F WCI  15
TRENTON        SUNNY     23   4  44 SW3       30.46F
MILLVILLE      SUNNY     25  32 100 W5        30.48F WCI  19
ATLANTIC CITY  MOSUNNY   24  13  62 CALM      30.48F
WRIGHTSTOWN    SUNNY     24   8  50 CALM      30.45F
TOMS RIVER     PTSUNNY   25  10  54 CALM      30.46F
BELMAR         SUNNY     25   3  39 CALM      30.46F
$$

PAZ047>061-062-071-062100-
EASTERN PENNSYLVANIA

CITY           SKY/WX    TMP DP  RH WIND       PRES   REMARKS
PHILADELPHIA   SUNNY     25   8  48 VRB3      30.49F
ALLENTOWN      SUNNY     22   4  46 S5        30.44F WCI  16
SCRANTON       SUNNY     23   2  40 W7        30.37F WCI  15
$$

CTZ002-004>006-009-010-012-RIZ004-006-007-MAZ004-011-015-062100-
SOUTHERN NEW ENGLAND
 IN CT

CITY           SKY/WX    TMP DP  RH WIND       PRES   REMARKS
BRADLEY INTL   MOSUNNY   27   1  32 SE10      30.40F WCI  17
HARTFORD       SUNNY     25  -2  31 SE6       30.43F WCI  18
DANBURY        SUNNY     24  -5  27 W7        30.42F WCI  16
WTRBRY/OXFORD  SUNNY     25  -2  30 W5        30.39F WCI  19
BRIDGEPORT     SUNNY     22   9  57 SW9       30.46F WCI  12
MERIDEN        SUNNY     27  -4  26 VRB6      30.43F WCI  20
NEW HAVEN      SUNNY     22   5  48 SW8       30.45F WCI  12
CHESTER        FAIR      25   5  42 S8        30.41F WCI  16
GROTON         SUNNY     20   2  45 SW8       30.44F WCI  10
WILLIMANTIC    SUNNY     25  -9  22 S6        30.41F WCI  18

 IN RI

CITY           SKY/WX    TMP DP  RH WIND       PRES   REMARKS
PROVIDENCE     MOSUNNY   23  -3  32 CALM      30.44F
BLOCK ISLAND   SUNNY     21   5  49 CALM      30.44S
WESTERLY       SUNNY     23   7  50 S8        30.45F WCI  14

 IN MA

CITY           SKY/WX    TMP DP  RH WIND       PRES   REMARKS
BOSTON         MOSUNNY   23   2  40 SE7       30.43F WCI  15
WORCESTER      SUNNY     23  -6  28 SW8       30.33F WCI  14
WESTFIELD      SUNNY     26   0  32 S7        30.39F WCI  18
PROVINCETOWN   SUNNY     21  10  63 NW3       30.45S
NANTUCKET      MOSUNNY   26  12  55 N5        30.44S WCI  20
$$

ANZ330-335-338-340-345-350-353-355-062100-
COASTAL MARINE OBSERVATIONS


STATION/POSITION TIME  SKY/WX   TEMP    WIND        PRES    VSBY  WAVE
                                AIR SEA DIR/SP/G                  HT/PER
                 (UTC)          (F)     (DEG/KT/KT) (MB)    (MI)  (FT/S)
NY HARB ENTRANCE 2000            22 38  310/  4/  6 1032.0          2/ 7
4S FIRE IS       NOT AVBL
20S FIRE ISLAND  1900               36              1032.8          3/ 5
23SW MTP         2000                                 N/A           2/10
HUDSON CANYON    NOT AVBL
EXECUTION ROCKS  NOT AVBL
WESTERN LI SOUND NOT AVBL
CENTRAL LI SOUND NOT AVBL
EASTERN LI SOUND NOT AVBL
ROBBINS REEF     2000            23     310/  3/  8 1030.5
$$


>>>>>>>>>>>>>>>>>>>>>>>>>>>> KEY <<<<<<<<<<<<<<<<<<<<<<<<<<<
>                                                          <
>     SKY/WX - SKY CONDITION/PRESENT WEATHER               <
>     TMP    - TEMPERATURE IN FAHRENHEIT                   <
>     DP     - DEWPOINT IN FAHRENHEIT                      <
>     RH     - RELATIVE HUMIDITY IN PERCENT                <
>     WIND   - DIRECTION AND SPEED IN MPH                  <
>     PRES   - MEAN SEA LEVEL PRESSURE IN INCHES OF HG     <
>     WCI    - WIND CHILL INDEX                            <
>     VSB    - VISIBILITY IN MILES                         <
>     HX     - HEAT INDEX                                  <
>     TC     - TEMPERATURE IN CELSIUS                      <
>     VRB    - VARIABLE WIND DIRECTION                     <
>                                                          <
>>>>>>>>>>>>>>>>>>>>>>>>>>>> KEY <<<<<<<<<<<<<<<<<<<<<<<<<<<




USA.gov is the U.S. government's official web portal to all federal, state and local government web resources and services.